sat.trackr.live / text

‹ back to catalog

STARLINK-35314

NORAD 65837 · 2025-221Q

PAYLOAD ACTIVE UNKNOWN

§ Identity

Operator
Country
US
Launch date
2025-09-29
Launch site
AFWTR
Launch vehicle
Mass (kg)
RCS (m²)

Purposes: comms

External: N2YO · Heavens-Above · Gunter

§ Orbital elements

Epoch: 2026-09-20T12:06:18.877824Z

Period
93.85 min
Inclination
53.1572°
Eccentricity
0.0001380
Mean motion
15.34415070 rev/d
Perigee alt
461.7 km
Apogee alt
463.6 km
Semi-major
6,840.8 km
B*
4.1826e-4
RAAN
259.6756°
Arg perigee
87.2015°
Mean anomaly
272.9145°
Rev number
5,461

§ Raw data

STARLINK-353141 65837U 25221Q   26263.50438516  .00013788  00000+0  41826-3 0  99922 65837  53.1572 259.6756 0001380  87.2015 272.9145 15.34415070 54615

JSON: /api/v1/satellites/65837 · /tle

For live sub-satellite position, see the globe view (requires WebGL).

§ Visibility from observer

Set your observer location to see the next 7 days of passes ≥ 10°. The values pass through the URL so the page stays shareable.

No JS? Fill the form by hand. The geolocation button needs JavaScript.